Regional Weather Roundup
Issued by NWS Sioux Falls, SD

Home | Current Version | Previous Version | Graphics & Text | Print | Product List | Glossary On
Versions: 1 2 3 4 5 6 7 8 9 10 11 12 13 14 15 16 17 18 19 20 21 22 23 24 25 26 27 28 29 30 31 32 33 34 35 36 37 38 39 40 41 42 43 44 45 46 47 48 49 50
750
ASUS43 KFSD 201010
RWRFSD

WEATHER ROUNDUP FOR SE SOUTH DAKOTA/SW MINNESOTA/NW IOWA
NATIONAL WEATHER SERVICE SIOUX FALLS SD
500 AM CDT SUN AUG 20 2017

NOTE: "FAIR" INDICATES FEW OR NO CLOUDS BELOW 12,000 FEET WITH NO
SIGNIFICANT WEATHER AND OR OBSTRUCTIONS TO VISIBILITY.


SDZ038>040-050-052>070-201100-
SOUTHEAST SOUTH DAKOTA

CITY           SKY/WX    TMP DP  RH WIND       PRES   REMARKS
BROOKINGS      CLOUDY    62  61  96 CALM      29.88R
CHAMBERLAIN    CLEAR     67  67 100 N10       29.91R
HURON          PTCLDY    64  63  96 NW5       29.90R FOG
MADISON        FAIR      64  64 100 SW9       29.88R
MITCHELL       CLEAR     65  63  93 CALM      29.86R
SIOUX FALLS    CLOUDY    70  63  78 W3        29.86R
WINNER         LGT RAIN  66  65  96 CALM      29.91S VSB 1/4
YANKTON        CLEAR     66  61  84 CALM      29.84S
$$

MNZ071-072-080-081-089-090-097-098-201100-
SOUTHWEST MINNESOTA

CITY           SKY/WX    TMP DP  RH WIND       PRES   REMARKS
FAIRMONT       CLOUDY    65  64  97 S7        29.89R
JACKSON        CLOUDY    64  61  88 CALM      29.88R
LUVERNE        CLOUDY    63  59  88 CALM      29.87S
MARSHALL       CLOUDY    65  63  93 S6        29.85R
MONTEVIDEO     CLOUDY    63  63 100 S3        29.84S
PIPESTONE      CLOUDY    66  63  88 CALM      29.88R
REDWOOD FALLS  CLOUDY    65  63  93 CALM      29.86R
TRACY          CLOUDY    65  64  97 CALM      29.86S
WINDOM         CLOUDY    68  63  83 S3        29.87S
WORTHINGTON    CLOUDY    69  63  81 S8        29.87R
$$

IAZ001>003-012>014-020>022-031-032-NEZ013-014-SDZ071-201100-
NORTHWEST IOWA

CITY           SKY/WX    TMP DP  RH WIND       PRES   REMARKS
CHEROKEE       CLOUDY    69  64  85 CALM      29.86R
DENISON        CLOUDY    66  64  94 SE17G28   29.81F
ESTHERVILLE    CLOUDY    64  63  96 S7        29.88R
LE MARS        CLOUDY   102 N/A N/A CALM      29.85R
ORANGE CITY    CLOUDY    70  66  88 SW5       29.86F
SHELDON        CLOUDY    70  63  78 SW8G14    29.84F
SIOUX CITY     CLOUDY    66  64  93 S3        29.85S
SPENCER        CLOUDY    69  63  81 S3        29.87R
STORM LAKE     CLOUDY    66  63  88 S8        29.87R
$$

ABBREVIATIONS USED IN REMARKS
   TC - TEMPERATURE IN CELSIUS
  WCI - WIND CHILL INDEX
   HX - HEAT INDEX
  VSB - VISIBILITY





USA.gov is the U.S. government's official web portal to all federal, state and local government web resources and services.